Regional Weather Roundup
Issued by NWS Northern Indiana

Home | Current Version | Previous Version | Graphics & Text | Print | Product List | Glossary On
Versions: 1 2 3 4 5 6 7 8 9 10 11 12 13 14 15 16 17 18 19 20 21 22 23 24 25 26 27 28 29 30 31 32 33 34 35 36 37 38 39 40 41 42 43 44 45 46 47 48 49 50
000
ASUS43 KIWX 011200
RWRIWX

KIWX WEATHER ROUNDUP
NATIONAL WEATHER SERVICE NORTHERN INDIANA
800 AM EDT WED OCT 01 2014

NOTE: "FAIR" INDICATES FEW OR NO CLOUDS BELOW 12,000 FEET WITH NO
SIGNIFICANT WEATHER AND/OR OBSTRUCTIONS TO VISIBILITY.

* THESE STATIONS ARE NOT UNDER NWS QUALITY CONTROL. THEY ALSO MAY NOT
  REPORT WEATHER SUCH AS PRECIPITATION OR FOG.

INZ001>027-011300-
NORTHERN INDIANA

CITY           SKY/WX    TMP DP  RH WIND       PRES   REMARKS
GARY*          PTCLDY    46  43  87 E6        30.03R
VALPARAISO     FOG       43  43 100 E5        30.03R VSB 1/4
KNOX*          CLEAR     40  38  95 E3        30.02R
6HR MIN TEMP:  38; 6HR MAX TEMP:  81;

SOUTH BEND     NOT AVBL
WARSAW*        FOG       43  43 100 CALM      30.04R VSB 1/2
ANGOLA*        CLEAR     46  45  93 CALM      30.04R
FORT WAYNE     CLOUDY    50  48  93 E3        30.05R FOG
6HR MIN TEMP:  45; 6HR MAX TEMP:  52;


$$
INZ028>050-011300-
CENTRAL INDIANA

CITY           SKY/WX    TMP DP  RH WIND       PRES   REMARKS
LAFAYETTE      CLEAR     44  43  96 E5        30.01R
6HR MIN TEMP:  43; 6HR MAX TEMP:  48;

KOKOMO*        CLOUDY    46  45  93 SE5       30.04R VSB<1/4
6HR MIN TEMP:  39; 6HR MAX TEMP:  46;

MUNCIE*        FOG       48  47  96 E7        30.03R VSB 1/4
6HR MIN TEMP:  41; 6HR MAX TEMP:  48;

INDIANAPOLIS   PTCLDY    50  45  83 E7        30.01R
6HR MIN TEMP:  49; 6HR MAX TEMP:  53;


$$
MIZ043>046-050>051-056>058-064>065-071>073-077>080-011300-
SOUTHWEST LOWER MICHIGAN

CITY           SKY/WX    TMP DP  RH WIND       PRES   REMARKS
BATTLE CREEK   CLOUDY    53  47  79 VRB6      30.05R
6HR MIN TEMP:  52; 6HR MAX TEMP:  53;

BENTON HARBOR  CLOUDY    52  47  83 SE7       30.04
6HR MIN TEMP:  52; 6HR MAX TEMP:  53;

COLDWATER*     CLOUDY    53  48  83 E3        30.04S
6HR MIN TEMP:  53; 6HR MAX TEMP:  54;

HILLSDALE*     CLOUDY    52  51  99 CALM      30.05R
6HR MIN TEMP:  49; 6HR MAX TEMP:  52;

HOLLAND        CLOUDY    54  49  83 E5        30.05R
6HR MIN TEMP:  51; 6HR MAX TEMP:  55;

GRAND RAPIDS   CLOUDY    53  51  93 E5        30.05R
6HR MIN TEMP:  52; 6HR MAX TEMP:  53;

KALAMAZOO      CLOUDY    52  47  83 SE3       30.05R
6HR MIN TEMP:  52; 6HR MAX TEMP:  53;

STURGIS*       CLEAR     46  45  93 CALM      30.04R
THREE RIVERS*  CLOUDY    52  48  86 CALM      30.05R
6HR MIN TEMP:  52; 6HR MAX TEMP:  54;


$$
OHZ001>008-015>018-024>025-011300-
NORTHWEST OHIO

CITY           SKY/WX    TMP DP  RH WIND       PRES   REMARKS
DEFIANCE       CLEAR     47  45  93 NE3       30.04R FOG
6HR MIN TEMP:  45; 6HR MAX TEMP:  52;

FINDLAY        CLOUDY    50  48  93 N3        30.03R
6HR MIN TEMP:  47; 6HR MAX TEMP:  55;

TOLEDO EXPRESS CLEAR     47  46  97 NW3       30.04R VSB 1
6HR MIN TEMP:  46; 6HR MAX TEMP:  50;

TOLEDO METCALF FAIR      47  44  90 CALM      30.05R
6HR MIN TEMP:  44; 6HR MAX TEMP:  52;

LIMA           FOG       48  46  93 NE3       30.03R VSB 1/4
6HR MIN TEMP:  46; 6HR MAX TEMP:  52;


$$
AND FOR LAKE MICHIGAN COASTAL AND OPEN LAKE BUOY OBSERVATIONS

STATION/POSITION TEMP    WIND        PRES    VSBY  WAVE
                 AIR SEA DIR/SP/G                  HT/PER
                 (F)     (DEG/KT/KT) (MB)    (MI)  (FT/S)
CALUMET HARBOR    54     130/  5/  8 1015.2R
MICHIGAN CITY     53      90/  4/  5   N/A
SAINT JOSEPH      54      CALM  /  4 1017.3R
SOUTH LAKE BUOY   57 62  160/ 10/ 12 1016.4F         2/ 5
4 MI NW BRIDGMAN  55 62  100/  6/ 10   N/A           1/ 2
MICHIGAN CITY     56 64  130/  8/ 10   N/A           2/ 2

$$
&&


USA.gov is the U.S. government's official web portal to all federal, state and local government web resources and services.